BEESAT-3 (39135 NORAD) Tracking and Keplerian Element Data

This shows tracking and keplerian element data for the satellite.

Feedback or suggestion? Click here.




ElementValue
Catalog39135
NameBEESAT-3
Epoch Orbit41456
Epoch Day294.32514151
Epoch Year2020
RAAN258.0593
Inclination64.8656
Eccentricity0.0027379
Argument of Perigee222.9785
Mean Anonmoly136.9203
Mean Motion15.18435702
Decay Rate1.232E-05
L11 39135U 13015F 20294.32514151 .00001232 00000-0 68814-4 0 9999
L22 39135 64.8656 258.0593 0027379 222.9785 136.9203 15.18435702414563

Live tracking and technical data element details for BEESAT-3 (NORAD 39135). BEESAT-3 can be tracked NOW for your location showing map with azimuth and elevation plus other details from your city location.

Track the satellite on the map from your city or location and see movement details for azimuth, elevation, latitude, longitude, range, height, and movement on the map or in text.







IsCatalogInMostPopularTable: catalog: 39135, numindb: 449
Update: records affected: 1



GetName: 39135 BEESAT-3

Hit Count: updated at: Thu, 22 Oct 2020 04:25:05 GMT